Time,TemperatureF,DewpointF,PressureIn,WindDirection,WindDirectionDegrees,WindSpeedMPH,WindSpeedGustMPH,Humidity,HourlyPrecipIn,Conditions,Clouds,dailyrainin,SolarRadiationWatts/m^2,SoftwareType,DateUTC
2013-06-02 00:02:00,65.2,49.1,29.78,NW,316,0.0,0.0,56,0.00,,,0.00,0,Wunderground v.1.15,2013-06-02 07:02:00,
2013-06-02 00:08:00,64.8,49.2,29.78,NW,316,0.0,0.0,57,0.00,,,0.00,0,Wunderground v.1.15,2013-06-02 07:08:00,
2013-06-02 00:13:00,64.5,48.9,29.78,NW,316,0.0,0.0,57,0.00,,,0.00,0,Wunderground v.1.15,2013-06-02 07:13:00,
2013-06-02 00:19:00,64.2,49.1,29.78,NW,316,0.0,0.0,58,0.00,,,0.00,0,Wunderground v.1.15,2013-06-02 07:19:00,
2013-06-02 00:24:00,63.9,49.3,29.78,NW,316,0.0,0.0,59,0.00,,,0.00,0,Wunderground v.1.15,2013-06-02 07:24:00,
2013-06-02 00:30:00,63.6,49.5,29.78,NW,316,0.0,0.0,60,0.00,,,0.00,0,Wunderground v.1.15,2013-06-02 07:30:00,
2013-06-02 00:35:00,63.4,49.3,29.78,NW,316,0.0,0.0,60,0.00,,,0.00,0,Wunderground v.1.15,2013-06-02 07:35:00,
2013-06-02 00:40:00,63.1,49.0,29.77,NW,316,0.0,0.0,60,0.00,,,0.00,0,Wunderground v.1.15,2013-06-02 07:40:00,
2013-06-02 00:46:00,62.8,49.1,29.77,NW,316,0.0,0.0,61,0.00,,,0.00,0,Wunderground v.1.15,2013-06-02 07:46:00,
2013-06-02 00:51:00,62.6,49.0,29.77,NW,316,0.0,0.0,61,0.00,,,0.00,0,Wunderground v.1.15,2013-06-02 07:51:00,
2013-06-02 00:56:00,62.4,48.8,29.77,NW,316,0.0,0.0,61,0.00,,,0.00,0,Wunderground v.1.15,2013-06-02 07:56:00,
2013-06-02 01:01:00,62.1,48.5,29.77,NW,316,0.0,0.0,61,0.00,,,0.00,0,Wunderground v.1.15,2013-06-02 08:01:00,
2013-06-02 01:06:00,61.9,48.3,29.77,NW,316,0.0,1.0,61,0.00,,,0.00,0,Wunderground v.1.15,2013-06-02 08:06:00,
2013-06-02 01:12:00,61.7,49.0,29.77,NW,316,0.0,0.0,63,0.00,,,0.00,0,Wunderground v.1.15,2013-06-02 08:12:00,
2013-06-02 01:17:00,61.5,48.8,29.77,NW,316,0.0,0.0,63,0.00,,,0.00,0,Wunderground v.1.15,2013-06-02 08:17:00,
2013-06-02 01:23:00,61.3,48.6,29.77,NW,316,0.0,0.0,63,0.00,,,0.00,0,Wunderground v.1.15,2013-06-02 08:23:00,
2013-06-02 01:29:00,61.1,48.4,29.77,NW,315,0.0,0.0,63,0.00,,,0.00,0,Wunderground v.1.15,2013-06-02 08:29:00,
2013-06-02 01:35:00,60.8,48.1,29.77,NW,315,0.0,0.0,63,0.00,,,0.00,0,Wunderground v.1.15,2013-06-02 08:35:00,
2013-06-02 01:40:00,60.6,48.4,29.77,NW,315,0.0,0.0,64,0.00,,,0.00,0,Wunderground v.1.15,2013-06-02 08:40:00,
2013-06-02 01:46:00,60.4,48.6,29.77,NW,316,0.0,0.0,65,0.00,,,0.00,0,Wunderground v.1.15,2013-06-02 08:46:00,
2013-06-02 01:51:00,60.2,48.8,29.77,NW,316,0.0,0.0,66,0.00,,,0.00,0,Wunderground v.1.15,2013-06-02 08:51:00,
2013-06-02 01:56:00,60.0,48.6,29.77,NW,316,0.0,0.0,66,0.00,,,0.00,0,Wunderground v.1.15,2013-06-02 08:56:00,
2013-06-02 02:01:00,59.8,48.4,29.76,NW,316,0.0,0.0,66,0.00,,,0.00,0,Wunderground v.1.15,2013-06-02 09:01:00,
2013-06-02 02:06:00,59.6,48.2,29.76,NW,316,0.0,0.0,66,0.00,,,0.00,0,Wunderground v.1.15,2013-06-02 09:06:00,
2013-06-02 02:11:00,59.4,48.0,29.76,NW,316,0.0,0.0,66,0.00,,,0.00,0,Wunderground v.1.15,2013-06-02 09:11:00,
2013-06-02 02:16:00,59.2,47.8,29.76,NW,315,0.0,0.0,66,0.00,,,0.00,0,Wunderground v.1.15,2013-06-02 09:16:00,
2013-06-02 02:22:00,59.0,48.1,29.76,NW,316,0.0,0.0,67,0.00,,,0.00,0,Wunderground v.1.15,2013-06-02 09:22:00,
2013-06-02 02:27:00,58.8,47.9,29.76,NW,316,0.0,0.0,67,0.00,,,0.00,0,Wunderground v.1.15,2013-06-02 09:27:00,
2013-06-02 02:32:00,58.6,48.1,29.76,NW,316,0.0,0.0,68,0.00,,,0.00,0,Wunderground v.1.15,2013-06-02 09:32:00,
2013-06-02 02:37:00,58.4,47.9,29.76,NW,316,0.0,0.0,68,0.00,,,0.00,0,Wunderground v.1.15,2013-06-02 09:37:00,
2013-06-02 02:42:00,58.2,47.7,29.76,NW,316,0.0,0.0,68,0.00,,,0.00,0,Wunderground v.1.15,2013-06-02 09:42:00,
2013-06-02 02:47:00,58.1,47.6,29.76,NW,315,0.0,0.0,68,0.00,,,0.00,0,Wunderground v.1.15,2013-06-02 09:47:00,
2013-06-02 02:53:00,57.8,47.7,29.75,NW,316,0.0,0.0,69,0.00,,,0.00,0,Wunderground v.1.15,2013-06-02 09:53:00,
2013-06-02 02:58:00,57.7,47.6,29.76,NW,316,0.0,0.0,69,0.00,,,0.00,0,Wunderground v.1.15,2013-06-02 09:58:00,
2013-06-02 03:03:00,57.5,47.4,29.76,NW,316,0.0,0.0,69,0.00,,,0.00,0,Wunderground v.1.15,2013-06-02 10:03:00,
2013-06-02 03:08:00,57.3,47.2,29.76,NW,316,0.0,0.0,69,0.00,,,0.00,0,Wunderground v.1.15,2013-06-02 10:08:00,
2013-06-02 03:13:00,57.1,47.4,29.75,NW,316,0.0,0.0,70,0.00,,,0.00,0,Wunderground v.1.15,2013-06-02 10:13:00,
2013-06-02 03:18:00,57.0,47.3,29.76,NW,316,0.0,0.0,70,0.00,,,0.00,0,Wunderground v.1.15,2013-06-02 10:18:00,
2013-06-02 03:24:00,56.8,47.1,29.75,NW,316,0.0,0.0,70,0.00,,,0.00,0,Wunderground v.1.15,2013-06-02 10:24:00,
2013-06-02 03:29:00,56.7,47.0,29.75,NW,316,0.0,0.0,70,0.00,,,0.00,0,Wunderground v.1.15,2013-06-02 10:29:00,
2013-06-02 03:35:00,56.5,47.2,29.75,NW,316,0.0,0.0,71,0.00,,,0.00,0,Wunderground v.1.15,2013-06-02 10:35:00,
2013-06-02 03:40:00,56.4,47.1,29.75,NW,316,0.0,0.0,71,0.00,,,0.00,0,Wunderground v.1.15,2013-06-02 10:40:00,
2013-06-02 03:45:00,56.2,47.3,29.75,NW,316,0.0,0.0,72,0.00,,,0.00,0,Wunderground v.1.15,2013-06-02 10:45:00,
2013-06-02 03:50:00,56.1,47.2,29.75,NW,316,0.0,0.0,72,0.00,,,0.00,0,Wunderground v.1.15,2013-06-02 10:50:00,
2013-06-02 03:56:00,55.9,47.0,29.75,NW,316,0.0,0.0,72,0.00,,,0.00,0,Wunderground v.1.15,2013-06-02 10:56:00,
2013-06-02 04:01:00,55.7,46.8,29.75,NW,316,0.0,0.0,72,0.00,,,0.00,0,Wunderground v.1.15,2013-06-02 11:01:00,
2013-06-02 04:06:00,55.6,47.1,29.75,NW,316,0.0,0.0,73,0.00,,,0.00,0,Wunderground v.1.15,2013-06-02 11:06:00,
2013-06-02 04:11:00,55.4,46.9,29.75,NW,316,0.0,0.0,73,0.00,,,0.00,0,Wunderground v.1.15,2013-06-02 11:11:00,
2013-06-02 04:16:00,55.3,47.2,29.75,NW,315,0.0,0.0,74,0.00,,,0.00,0,Wunderground v.1.15,2013-06-02 11:16:00,
2013-06-02 04:21:00,55.1,47.0,29.75,NW,315,0.0,0.0,74,0.00,,,0.00,0,Wunderground v.1.15,2013-06-02 11:21:00,
2013-06-02 04:27:00,55.0,46.9,29.75,NW,315,0.0,0.0,74,0.00,,,0.00,0,Wunderground v.1.15,2013-06-02 11:27:00,
2013-06-02 04:32:00,54.8,46.7,29.75,NW,315,0.0,0.0,74,0.00,,,0.00,0,Wunderground v.1.15,2013-06-02 11:32:00,
2013-06-02 04:38:00,54.7,46.9,29.75,NW,316,0.0,0.0,75,0.00,,,0.00,0,Wunderground v.1.15,2013-06-02 11:38:00,
2013-06-02 04:43:00,54.5,46.7,29.75,NW,316,0.0,0.0,75,0.00,,,0.00,0,Wunderground v.1.15,2013-06-02 11:43:00,
2013-06-02 04:49:00,54.3,46.5,29.75,NW,316,0.0,0.0,75,0.00,,,0.00,0,Wunderground v.1.15,2013-06-02 11:49:00,
2013-06-02 04:55:00,54.2,46.8,29.75,NW,316,0.0,0.0,76,0.00,,,0.00,0,Wunderground v.1.15,2013-06-02 11:55:00,
2013-06-02 05:00:00,54.1,46.7,29.75,NW,316,0.0,0.0,76,0.00,,,0.00,0,Wunderground v.1.15,2013-06-02 12:00:00,
2013-06-02 05:05:00,54.0,46.6,29.75,NW,316,0.0,0.0,76,0.00,,,0.00,0,Wunderground v.1.15,2013-06-02 12:05:00,
2013-06-02 05:11:00,53.9,46.9,29.75,NW,316,0.0,0.0,77,0.00,,,0.00,0,Wunderground v.1.15,2013-06-02 12:11:00,
2013-06-02 05:17:00,53.8,46.8,29.75,NW,316,0.0,0.0,77,0.00,,,0.00,0,Wunderground v.1.15,2013-06-02 12:17:00,
2013-06-02 05:23:00,53.6,46.6,29.75,NW,315,0.0,0.0,77,0.00,,,0.00,0,Wunderground v.1.15,2013-06-02 12:23:00,
2013-06-02 05:28:00,53.5,46.8,29.75,NW,316,0.0,0.0,78,0.00,,,0.00,0,Wunderground v.1.15,2013-06-02 12:28:00,
2013-06-02 05:33:00,53.4,46.7,29.75,NW,316,0.0,0.0,78,0.00,,,0.00,0,Wunderground v.1.15,2013-06-02 12:33:00,
2013-06-02 05:38:00,53.3,46.6,29.75,NW,316,0.0,0.0,78,0.00,,,0.00,0,Wunderground v.1.15,2013-06-02 12:38:00,
2013-06-02 05:43:00,53.2,46.5,29.75,NW,315,0.0,0.0,78,0.00,,,0.00,0,Wunderground v.1.15,2013-06-02 12:43:00,
2013-06-02 05:48:00,53.1,46.4,29.75,NW,315,0.0,0.0,78,0.00,,,0.00,5,Wunderground v.1.15,2013-06-02 12:48:00,
2013-06-02 05:53:00,53.0,46.7,29.76,NW,315,0.0,0.0,79,0.00,,,0.00,7,Wunderground v.1.15,2013-06-02 12:53:00,
2013-06-02 05:58:00,52.9,46.6,29.76,NW,316,0.0,0.0,79,0.00,,,0.00,11,Wunderground v.1.15,2013-06-02 12:58:00,
2013-06-02 06:04:00,52.8,46.5,29.76,NW,315,0.0,0.0,79,0.00,,,0.00,12,Wunderground v.1.15,2013-06-02 13:04:00,
2013-06-02 06:09:00,52.8,46.5,29.76,NW,315,0.0,0.0,79,0.00,,,0.00,16,Wunderground v.1.15,2013-06-02 13:09:00,
2013-06-02 06:15:00,52.7,46.4,29.76,NW,315,0.0,0.0,79,0.00,,,0.00,19,Wunderground v.1.15,2013-06-02 13:15:00,
2013-06-02 06:20:00,52.6,46.3,29.76,NW,316,0.0,0.0,79,0.00,,,0.00,21,Wunderground v.1.15,2013-06-02 13:20:00,
2013-06-02 06:25:00,52.6,46.3,29.76,NW,315,0.0,0.0,79,0.00,,,0.00,23,Wunderground v.1.15,2013-06-02 13:25:00,
2013-06-02 06:30:00,52.6,46.3,29.76,NW,315,0.0,0.0,79,0.00,,,0.00,26,Wunderground v.1.15,2013-06-02 13:30:00,
2013-06-02 06:36:00,52.6,46.6,29.76,NW,316,0.0,0.0,80,0.00,,,0.00,28,Wunderground v.1.15,2013-06-02 13:36:00,
2013-06-02 06:42:00,52.5,46.5,29.76,NW,316,0.0,0.0,80,0.00,,,0.00,62,Wunderground v.1.15,2013-06-02 13:42:00,
2013-06-02 06:47:00,52.7,47.0,29.77,NW,316,0.0,0.0,81,0.00,,,0.00,97,Wunderground v.1.15,2013-06-02 13:47:00,
2013-06-02 06:52:00,52.9,47.2,29.77,NW,316,0.0,0.0,81,0.00,,,0.00,113,Wunderground v.1.15,2013-06-02 13:52:00,
2013-06-02 06:57:00,53.2,47.5,29.77,NW,316,0.0,0.0,81,0.00,,,0.00,127,Wunderground v.1.15,2013-06-02 13:57:00,
2013-06-02 07:02:00,53.6,47.9,29.77,NW,316,0.0,0.0,81,0.00,,,0.00,144,Wunderground v.1.15,2013-06-02 14:02:00,
2013-06-02 07:08:00,54.2,48.5,29.77,NW,316,0.0,0.0,81,0.00,,,0.00,156,Wunderground v.1.15,2013-06-02 14:08:00,
2013-06-02 07:13:00,54.8,48.7,29.77,NW,316,0.0,0.0,80,0.00,,,0.00,185,Wunderground v.1.15,2013-06-02 14:13:00,
2013-06-02 07:19:00,55.7,48.9,29.77,NW,316,0.0,0.0,78,0.00,,,0.00,207,Wunderground v.1.15,2013-06-02 14:19:00,
2013-06-02 07:25:00,57.0,49.2,29.76,NW,316,0.0,0.0,75,0.00,,,0.00,227,Wunderground v.1.15,2013-06-02 14:25:00,
2013-06-02 07:31:00,58.1,49.5,29.77,NW,316,0.0,0.0,73,0.00,,,0.00,246,Wunderground v.1.15,2013-06-02 14:31:00,
2013-06-02 07:37:00,58.9,49.5,29.76,NW,316,0.0,0.0,71,0.00,,,0.00,264,Wunderground v.1.15,2013-06-02 14:37:00,
2013-06-02 07:43:00,59.6,49.0,29.77,NW,316,0.0,0.0,68,0.00,,,0.00,283,Wunderground v.1.15,2013-06-02 14:43:00,
2013-06-02 07:49:00,60.4,49.0,29.77,NW,316,0.0,0.0,66,0.00,,,0.00,304,Wunderground v.1.15,2013-06-02 14:49:00,
2013-06-02 07:54:00,61.0,49.1,29.77,NW,316,0.0,1.0,65,0.00,,,0.00,320,Wunderground v.1.15,2013-06-02 14:54:00,
2013-06-02 08:00:00,61.7,49.4,29.76,NW,316,0.0,0.0,64,0.00,,,0.00,339,Wunderground v.1.15,2013-06-02 15:00:00,
2013-06-02 08:05:00,62.5,50.2,29.76,NW,316,0.0,0.0,64,0.00,,,0.00,357,Wunderground v.1.15,2013-06-02 15:05:00,
2013-06-02 08:10:00,63.3,50.1,29.76,NW,316,0.0,0.0,62,0.00,,,0.00,373,Wunderground v.1.15,2013-06-02 15:10:00,
2013-06-02 08:15:00,64.0,50.3,29.77,NW,316,0.0,0.0,61,0.00,,,0.00,390,Wunderground v.1.15,2013-06-02 15:15:00,
2013-06-02 08:20:00,64.5,49.4,29.77,NW,316,0.0,0.0,58,0.00,,,0.00,406,Wunderground v.1.15,2013-06-02 15:20:00,
2013-06-02 08:25:00,65.1,50.0,29.76,NW,316,0.0,1.0,58,0.00,,,0.00,420,Wunderground v.1.15,2013-06-02 15:25:00,
2013-06-02 08:30:00,65.6,49.0,29.77,NW,316,0.0,0.0,55,0.00,,,0.00,436,Wunderground v.1.15,2013-06-02 15:30:00,
2013-06-02 08:35:00,66.0,48.9,29.77,NW,324,1.0,1.0,54,0.00,,,0.00,454,Wunderground v.1.15,2013-06-02 15:35:00,
2013-06-02 08:40:00,66.3,49.2,29.76,NW,326,1.0,1.0,54,0.00,,,0.00,469,Wunderground v.1.15,2013-06-02 15:40:00,
2013-06-02 08:46:00,66.8,49.1,29.76,NW,326,1.0,2.0,53,0.00,,,0.00,485,Wunderground v.1.15,2013-06-02 15:46:00,
2013-06-02 08:51:00,67.2,49.0,29.76,NW,326,1.0,3.0,52,0.00,,,0.00,503,Wunderground v.1.15,2013-06-02 15:51:00,
2013-06-02 08:56:00,67.5,48.7,29.76,NW,326,0.0,3.0,51,0.00,,,0.00,520,Wunderground v.1.15,2013-06-02 15:56:00,
2013-06-02 09:01:00,68.1,49.3,29.76,NW,309,0.0,1.0,51,0.00,,,0.00,534,Wunderground v.1.15,2013-06-02 16:01:00,
2013-06-02 09:06:00,68.6,49.2,29.76,NW,309,0.0,1.0,50,0.00,,,0.00,550,Wunderground v.1.15,2013-06-02 16:06:00,
2013-06-02 09:11:00,69.2,49.8,29.76,NW,309,0.0,1.0,50,0.00,,,0.00,566,Wunderground v.1.15,2013-06-02 16:11:00,
2013-06-02 09:17:00,69.7,50.2,29.76,NW,309,0.0,2.0,50,0.00,,,0.00,585,Wunderground v.1.15,2013-06-02 16:17:00,
2013-06-02 09:23:00,70.4,49.8,29.75,NW,310,1.0,1.0,48,0.00,,,0.00,601,Wunderground v.1.15,2013-06-02 16:23:00,
2013-06-02 09:28:00,71.0,49.7,29.75,NW,311,1.0,1.0,47,0.00,,,0.00,615,Wunderground v.1.15,2013-06-02 16:28:00,
2013-06-02 09:34:00,71.4,50.1,29.75,West,278,1.0,1.0,47,0.00,,,0.00,633,Wunderground v.1.15,2013-06-02 16:34:00,
2013-06-02 09:39:00,72.1,50.2,29.75,West,278,0.0,1.0,46,0.00,,,0.00,647,Wunderground v.1.15,2013-06-02 16:39:00,
2013-06-02 09:45:00,72.7,50.1,29.75,West,264,1.0,3.0,45,0.00,,,0.00,664,Wunderground v.1.15,2013-06-02 16:45:00,
2013-06-02 09:51:00,73.3,50.7,29.75,West,261,1.0,3.0,45,0.00,,,0.00,680,Wunderground v.1.15,2013-06-02 16:51:00,
2013-06-02 09:56:00,73.5,50.2,29.75,WSW,254,1.0,4.0,44,0.00,,,0.00,694,Wunderground v.1.15,2013-06-02 16:56:00,
2013-06-02 10:02:00,73.6,50.3,29.75,NW,309,2.0,3.0,44,0.00,,,0.00,708,Wunderground v.1.15,2013-06-02 17:02:00,
2013-06-02 10:07:00,73.7,49.8,29.75,WSW,247,2.0,6.0,43,0.00,,,0.00,722,Wunderground v.1.15,2013-06-02 17:07:00,
2013-06-02 10:13:00,73.9,50.6,29.75,WSW,248,2.0,4.0,44,0.00,,,0.00,740,Wunderground v.1.15,2013-06-02 17:13:00,
2013-06-02 10:18:00,74.2,50.3,29.75,NNW,333,2.0,4.0,43,0.00,,,0.00,751,Wunderground v.1.15,2013-06-02 17:18:00,
2013-06-02 10:23:00,74.4,51.1,29.75,WNW,299,2.0,3.0,44,0.00,,,0.00,765,Wunderground v.1.15,2013-06-02 17:23:00,
2013-06-02 10:29:00,74.8,50.8,29.75,NNW,342,2.0,3.0,43,0.00,,,0.00,777,Wunderground v.1.15,2013-06-02 17:29:00,
2013-06-02 10:34:00,75.0,50.3,29.75,NW,325,1.0,3.0,42,0.00,,,0.00,791,Wunderground v.1.15,2013-06-02 17:34:00,
2013-06-02 10:40:00,76.2,50.8,29.75,NNW,328,1.0,1.0,41,0.00,,,0.00,802,Wunderground v.1.15,2013-06-02 17:40:00,
2013-06-02 10:45:00,76.7,50.6,29.74,NNW,333,1.0,3.0,40,0.00,,,0.00,812,Wunderground v.1.15,2013-06-02 17:45:00,
2013-06-02 10:50:00,77.4,51.2,29.74,North,5,1.0,2.0,40,0.00,,,0.00,826,Wunderground v.1.15,2013-06-02 17:50:00,
2013-06-02 10:55:00,77.4,50.5,29.74,North,351,1.0,2.0,39,0.00,,,0.00,835,Wunderground v.1.15,2013-06-02 17:55:00,
2013-06-02 11:01:00,77.5,51.9,29.74,NW,304,1.0,5.0,41,0.00,,,0.00,847,Wunderground v.1.15,2013-06-02 18:01:00,
2013-06-02 11:06:00,77.9,52.3,29.73,WNW,297,1.0,5.0,41,0.00,,,0.00,854,Wunderground v.1.15,2013-06-02 18:06:00,
2013-06-02 11:11:00,78.2,52.6,29.73,West,267,2.0,2.0,41,0.00,,,0.00,867,Wunderground v.1.15,2013-06-02 18:11:00,
2013-06-02 11:16:00,78.7,52.3,29.74,North,350,2.0,4.0,40,0.00,,,0.00,872,Wunderground v.1.15,2013-06-02 18:16:00,
2013-06-02 11:21:00,79.7,51.8,29.73,NNW,344,1.0,4.0,38,0.00,,,0.00,882,Wunderground v.1.15,2013-06-02 18:21:00,
2013-06-02 11:27:00,79.6,51.8,29.73,North,355,1.0,4.0,38,0.00,,,0.00,891,Wunderground v.1.15,2013-06-02 18:27:00,
2013-06-02 11:32:00,79.9,52.0,29.73,WSW,240,2.0,4.0,38,0.00,,,0.00,900,Wunderground v.1.15,2013-06-02 18:32:00,
2013-06-02 11:38:00,80.8,52.1,29.73,NW,320,1.0,4.0,37,0.00,,,0.00,907,Wunderground v.1.15,2013-06-02 18:38:00,
2013-06-02 11:43:00,81.6,53.5,29.73,NW,313,1.0,1.0,38,0.00,,,0.00,918,Wunderground v.1.15,2013-06-02 18:43:00,
2013-06-02 11:48:00,82.5,53.6,29.73,WNW,282,1.0,4.0,37,0.00,,,0.00,921,Wunderground v.1.15,2013-06-02 18:48:00,
2013-06-02 11:53:00,82.4,52.8,29.73,WNW,291,2.0,4.0,36,0.00,,,0.00,930,Wunderground v.1.15,2013-06-02 18:53:00,
2013-06-02 11:59:00,82.1,53.2,29.72,NW,324,2.0,4.0,37,0.00,,,0.00,935,Wunderground v.1.15,2013-06-02 18:59:00,
2013-06-02 12:04:00,82.2,52.6,29.72,NNW,328,1.0,4.0,36,0.00,,,0.00,940,Wunderground v.1.15,2013-06-02 19:04:00,
2013-06-02 12:10:00,82.6,52.9,29.72,WSW,246,2.0,2.0,36,0.00,,,0.00,949,Wunderground v.1.15,2013-06-02 19:10:00,
2013-06-02 12:15:00,83.3,53.6,29.72,West,268,2.0,3.0,36,0.00,,,0.00,949,Wunderground v.1.15,2013-06-02 19:15:00,
2013-06-02 12:20:00,84.0,53.4,29.71,WSW,255,1.0,1.0,35,0.00,,,0.00,956,Wunderground v.1.15,2013-06-02 19:20:00,
2013-06-02 12:26:00,84.1,53.5,29.71,WNW,282,2.0,3.0,35,0.00,,,0.00,958,Wunderground v.1.15,2013-06-02 19:26:00,
2013-06-02 12:31:00,84.0,53.4,29.71,WNW,301,2.0,2.0,35,0.00,,,0.00,963,Wunderground v.1.15,2013-06-02 19:31:00,
2013-06-02 12:37:00,83.9,53.3,29.71,NW,321,2.0,6.0,35,0.00,,,0.00,967,Wunderground v.1.15,2013-06-02 19:37:00,
2013-06-02 12:42:00,84.1,54.3,29.71,West,271,3.0,3.0,36,0.00,,,0.00,970,Wunderground v.1.15,2013-06-02 19:42:00,
2013-06-02 12:47:00,84.6,53.1,29.71,West,281,2.0,3.0,34,0.00,,,0.00,974,Wunderground v.1.15,2013-06-02 19:47:00,
2013-06-02 12:53:00,85.4,53.8,29.70,NW,323,2.0,5.0,34,0.00,,,0.00,974,Wunderground v.1.15,2013-06-02 19:53:00,
2013-06-02 12:59:00,86.0,53.5,29.70,NW,316,2.0,5.0,33,0.00,,,0.00,976,Wunderground v.1.15,2013-06-02 19:59:00,
2013-06-02 13:04:00,86.2,54.5,29.70,NW,315,2.0,4.0,34,0.00,,,0.00,977,Wunderground v.1.15,2013-06-02 20:04:00,
2013-06-02 13:09:00,85.7,54.1,29.70,NW,311,3.0,7.0,34,0.00,,,0.00,974,Wunderground v.1.15,2013-06-02 20:09:00,
2013-06-02 13:14:00,85.9,54.3,29.70,NW,315,3.0,4.0,34,0.00,,,0.00,976,Wunderground v.1.15,2013-06-02 20:14:00,
2013-06-02 13:20:00,86.7,55.0,29.70,NW,325,3.0,3.0,34,0.00,,,0.00,976,Wunderground v.1.15,2013-06-02 20:20:00,
2013-06-02 13:25:00,86.8,55.9,29.70,WNW,299,4.0,8.0,35,0.00,,,0.00,976,Wunderground v.1.15,2013-06-02 20:25:00,
2013-06-02 13:30:00,86.6,54.9,29.70,West,259,4.0,4.0,34,0.00,,,0.00,972,Wunderground v.1.15,2013-06-02 20:30:00,
2013-06-02 13:35:00,86.4,56.3,29.70,West,261,5.0,9.0,36,0.00,,,0.00,970,Wunderground v.1.15,2013-06-02 20:35:00,
2013-06-02 13:40:00,86.5,55.6,29.70,WSW,250,4.0,4.0,35,0.00,,,0.00,970,Wunderground v.1.15,2013-06-02 20:40:00,
2013-06-02 13:45:00,87.5,55.7,29.69,SSW,211,3.0,4.0,34,0.00,,,0.00,967,Wunderground v.1.15,2013-06-02 20:45:00,
2013-06-02 13:50:00,88.1,55.4,29.69,SW,232,2.0,2.0,33,0.00,,,0.00,963,Wunderground v.1.15,2013-06-02 20:50:00,
2013-06-02 13:55:00,87.8,55.1,29.69,SW,221,3.0,7.0,33,0.00,,,0.00,965,Wunderground v.1.15,2013-06-02 20:55:00,
2013-06-02 14:01:00,87.9,55.2,29.69,SW,222,4.0,8.0,33,0.00,,,0.00,958,Wunderground v.1.15,2013-06-02 21:01:00,
2013-06-02 14:07:00,87.6,55.8,29.69,SW,223,4.0,8.0,34,0.00,,,0.00,953,Wunderground v.1.15,2013-06-02 21:07:00,
2013-06-02 14:12:00,88.2,56.3,29.69,SW,223,3.0,5.0,34,0.00,,,0.00,949,Wunderground v.1.15,2013-06-02 21:12:00,
2013-06-02 14:17:00,88.3,55.6,29.69,SSE,156,3.0,7.0,33,0.00,,,0.00,944,Wunderground v.1.15,2013-06-02 21:17:00,
2013-06-02 14:22:00,88.3,56.4,29.69,West,263,3.0,4.0,34,0.00,,,0.00,937,Wunderground v.1.15,2013-06-02 21:22:00,
2013-06-02 14:27:00,88.6,55.8,29.68,WSW,246,3.0,7.0,33,0.00,,,0.00,935,Wunderground v.1.15,2013-06-02 21:27:00,
2013-06-02 14:32:00,87.9,55.2,29.69,WSW,237,4.0,8.0,33,0.00,,,0.00,926,Wunderground v.1.15,2013-06-02 21:32:00,
2013-06-02 14:37:00,88.3,55.6,29.68,NNW,336,3.0,8.0,33,0.00,,,0.00,923,Wunderground v.1.15,2013-06-02 21:37:00,
2013-06-02 14:42:00,88.0,55.3,29.68,WSW,254,3.0,6.0,33,0.00,,,0.00,914,Wunderground v.1.15,2013-06-02 21:42:00,
2013-06-02 14:47:00,87.9,54.4,29.68,West,266,4.0,6.0,32,0.00,,,0.00,907,Wunderground v.1.15,2013-06-02 21:47:00,
2013-06-02 14:53:00,87.6,54.9,29.68,South,188,3.0,5.0,33,0.00,,,0.00,902,Wunderground v.1.15,2013-06-02 21:53:00,
2013-06-02 14:58:00,87.9,55.2,29.68,WSW,258,3.0,5.0,33,0.00,,,0.00,893,Wunderground v.1.15,2013-06-02 21:58:00,
2013-06-02 15:03:00,88.4,54.8,29.68,West,265,3.0,7.0,32,0.00,,,0.00,884,Wunderground v.1.15,2013-06-02 22:03:00,
2013-06-02 15:08:00,88.4,55.6,29.68,WSW,247,3.0,9.0,33,0.00,,,0.00,877,Wunderground v.1.15,2013-06-02 22:08:00,
2013-06-02 15:14:00,88.0,54.4,29.68,NNW,342,4.0,7.0,32,0.00,,,0.00,867,Wunderground v.1.15,2013-06-02 22:14:00,
2013-06-02 15:20:00,87.9,55.2,29.68,NNW,345,3.0,5.0,33,0.00,,,0.00,854,Wunderground v.1.15,2013-06-02 22:20:00,
2013-06-02 15:25:00,87.9,55.2,29.68,WSW,239,2.0,5.0,33,0.00,,,0.00,846,Wunderground v.1.15,2013-06-02 22:25:00,
2013-06-02 15:30:00,88.0,54.4,29.68,WSW,240,2.0,4.0,32,0.00,,,0.00,835,Wunderground v.1.15,2013-06-02 22:30:00,
2013-06-02 15:35:00,88.1,55.4,29.67,West,275,2.0,6.0,33,0.00,,,0.00,824,Wunderground v.1.15,2013-06-02 22:35:00,
2013-06-02 15:40:00,88.4,54.8,29.67,NNW,345,2.0,2.0,32,0.00,,,0.00,812,Wunderground v.1.15,2013-06-02 22:40:00,
2013-06-02 15:46:00,89.2,55.5,29.67,NNW,344,1.0,3.0,32,0.00,,,0.00,803,Wunderground v.1.15,2013-06-02 22:46:00,
2013-06-02 15:51:00,89.4,53.9,29.67,WSW,252,1.0,8.0,30,0.00,,,0.00,791,Wunderground v.1.15,2013-06-02 22:51:00,
2013-06-02 15:57:00,89.3,54.7,29.67,WNW,285,3.0,8.0,31,0.00,,,0.00,777,Wunderground v.1.15,2013-06-02 22:57:00,
2013-06-02 16:02:00,89.2,53.7,29.67,SSW,196,3.0,6.0,30,0.00,,,0.00,766,Wunderground v.1.15,2013-06-02 23:02:00,
2013-06-02 16:07:00,89.1,53.6,29.67,SW,217,3.0,6.0,30,0.00,,,0.00,756,Wunderground v.1.15,2013-06-02 23:07:00,
2013-06-02 16:12:00,88.8,53.4,29.67,SSW,207,3.0,7.0,30,0.00,,,0.00,742,Wunderground v.1.15,2013-06-02 23:12:00,
2013-06-02 16:17:00,88.6,53.2,29.67,SSW,202,3.0,7.0,30,0.00,,,0.00,728,Wunderground v.1.15,2013-06-02 23:17:00,
2013-06-02 16:22:00,88.6,53.2,29.67,SW,234,2.0,8.0,30,0.00,,,0.00,714,Wunderground v.1.15,2013-06-02 23:22:00,
2013-06-02 16:28:00,88.6,52.3,29.66,WSW,248,3.0,8.0,29,0.00,,,0.00,700,Wunderground v.1.15,2013-06-02 23:28:00,
2013-06-02 16:34:00,88.1,51.8,29.66,SSW,204,4.0,8.0,29,0.00,,,0.00,682,Wunderground v.1.15,2013-06-02 23:34:00,
2013-06-02 16:40:00,87.7,51.5,29.66,South,184,4.0,4.0,29,0.00,,,0.00,664,Wunderground v.1.15,2013-06-02 23:40:00,
2013-06-02 16:46:00,87.2,51.1,29.66,SW,219,4.0,9.0,29,0.00,,,0.00,649,Wunderground v.1.15,2013-06-02 23:46:00,
2013-06-02 16:51:00,87.0,50.0,29.66,WSW,238,4.0,5.0,28,0.00,,,0.00,635,Wunderground v.1.15,2013-06-02 23:51:00,
2013-06-02 16:56:00,86.7,50.6,29.66,SW,225,4.0,5.0,29,0.00,,,0.00,621,Wunderground v.1.15,2013-06-02 23:56:00,
2013-06-02 17:01:00,86.4,50.4,29.66,SW,219,4.0,4.0,29,0.00,,,0.00,606,Wunderground v.1.15,2013-06-03 00:01:00,
2013-06-02 17:07:00,86.4,50.4,29.65,WSW,239,3.0,6.0,29,0.00,,,0.00,591,Wunderground v.1.15,2013-06-03 00:07:00,
2013-06-02 17:12:00,86.5,50.5,29.65,WSW,240,2.0,2.0,29,0.00,,,0.00,575,Wunderground v.1.15,2013-06-03 00:12:00,
2013-06-02 17:18:00,86.8,50.7,29.65,WSW,238,2.0,5.0,29,0.00,,,0.00,555,Wunderground v.1.15,2013-06-03 00:18:00,
2013-06-02 17:24:00,87.0,50.9,29.65,SSW,202,2.0,5.0,29,0.00,,,0.00,538,Wunderground v.1.15,2013-06-03 00:24:00,
2013-06-02 17:29:00,86.6,50.6,29.65,SW,221,4.0,8.0,29,0.00,,,0.00,522,Wunderground v.1.15,2013-06-03 00:29:00,
2013-06-02 17:34:00,86.3,50.3,29.65,South,182,4.0,4.0,29,0.00,,,0.00,506,Wunderground v.1.15,2013-06-03 00:34:00,
2013-06-02 17:39:00,86.1,51.0,29.65,SW,215,3.0,5.0,30,0.00,,,0.00,490,Wunderground v.1.15,2013-06-03 00:39:00,
2013-06-02 17:45:00,85.8,50.8,29.65,SSW,208,3.0,7.0,30,0.00,,,0.00,471,Wunderground v.1.15,2013-06-03 00:45:00,
2013-06-02 17:50:00,85.5,50.5,29.64,SSW,202,4.0,4.0,30,0.00,,,0.00,455,Wunderground v.1.15,2013-06-03 00:50:00,
2013-06-02 17:55:00,85.3,49.4,29.64,South,187,4.0,4.0,29,0.00,,,0.00,439,Wunderground v.1.15,2013-06-03 00:55:00,
2013-06-02 18:00:00,85.1,49.3,29.64,SSW,205,3.0,3.0,29,0.00,,,0.00,422,Wunderground v.1.15,2013-06-03 01:00:00,
2013-06-02 18:05:00,85.1,50.2,29.64,SSW,196,3.0,3.0,30,0.00,,,0.00,406,Wunderground v.1.15,2013-06-03 01:05:00,
2013-06-02 18:10:00,85.0,49.2,29.64,SSW,213,3.0,3.0,29,0.00,,,0.00,388,Wunderground v.1.15,2013-06-03 01:10:00,
2013-06-02 18:16:00,84.8,49.9,29.64,SSW,205,3.0,3.0,30,0.00,,,0.00,371,Wunderground v.1.15,2013-06-03 01:16:00,
2013-06-02 18:21:00,84.9,50.0,29.64,SSW,205,1.0,2.0,30,0.00,,,0.00,353,Wunderground v.1.15,2013-06-03 01:21:00,
2013-06-02 18:27:00,85.2,50.3,29.64,SSW,205,0.0,2.0,30,0.00,,,0.00,334,Wunderground v.1.15,2013-06-03 01:27:00,
2013-06-02 18:33:00,85.5,51.4,29.64,NW,306,1.0,4.0,31,0.00,,,0.00,313,Wunderground v.1.15,2013-06-03 01:33:00,
2013-06-02 18:38:00,85.5,52.3,29.64,WNW,296,2.0,6.0,32,0.00,,,0.00,297,Wunderground v.1.15,2013-06-03 01:38:00,
2013-06-02 18:43:00,85.0,51.8,29.64,West,270,2.0,3.0,32,0.00,,,0.00,279,Wunderground v.1.15,2013-06-03 01:43:00,
2013-06-02 18:48:00,84.7,52.4,29.64,WSW,248,1.0,3.0,33,0.00,,,0.00,264,Wunderground v.1.15,2013-06-03 01:48:00,
2013-06-02 18:53:00,84.5,51.4,29.64,WSW,242,1.0,2.0,32,0.00,,,0.00,241,Wunderground v.1.15,2013-06-03 01:53:00,
2013-06-02 18:58:00,84.0,51.0,29.64,South,169,1.0,5.0,32,0.00,,,0.00,225,Wunderground v.1.15,2013-06-03 01:58:00,
2013-06-02 19:03:00,83.1,52.6,29.65,South,171,2.0,4.0,35,0.00,,,0.00,202,Wunderground v.1.15,2013-06-03 02:03:00,
2013-06-02 19:08:00,82.3,52.7,29.65,South,171,1.0,4.0,36,0.00,,,0.00,188,Wunderground v.1.15,2013-06-03 02:08:00,
2013-06-02 19:13:00,81.6,53.5,29.65,South,170,1.0,4.0,38,0.00,,,0.00,169,Wunderground v.1.15,2013-06-03 02:13:00,
2013-06-02 19:19:00,80.7,54.8,29.66,SSE,159,2.0,4.0,41,0.00,,,0.00,146,Wunderground v.1.15,2013-06-03 02:19:00,
2013-06-02 19:25:00,79.7,54.6,29.65,SE,142,2.0,3.0,42,0.00,,,0.00,125,Wunderground v.1.15,2013-06-03 02:25:00,
2013-06-02 19:31:00,78.7,54.3,29.66,SE,138,1.0,1.0,43,0.00,,,0.00,105,Wunderground v.1.15,2013-06-03 02:31:00,
2013-06-02 19:36:00,77.9,54.8,29.66,SE,134,1.0,4.0,45,0.00,,,0.00,88,Wunderground v.1.15,2013-06-03 02:36:00,
2013-06-02 19:42:00,76.7,54.4,29.66,SE,146,2.0,6.0,46,0.00,,,0.00,32,Wunderground v.1.15,2013-06-03 02:42:00,
2013-06-02 19:47:00,75.7,54.6,29.66,SE,139,2.0,7.0,48,0.00,,,0.00,30,Wunderground v.1.15,2013-06-03 02:47:00,
2013-06-02 19:53:00,74.4,54.0,29.66,SSE,150,3.0,5.0,49,0.00,,,0.00,25,Wunderground v.1.15,2013-06-03 02:53:00,
2013-06-02 19:58:00,73.6,54.4,29.66,SE,142,2.0,5.0,51,0.00,,,0.00,26,Wunderground v.1.15,2013-06-03 02:58:00,
2013-06-02 20:03:00,72.9,54.2,29.67,SE,143,2.0,4.0,52,0.00,,,0.00,19,Wunderground v.1.15,2013-06-03 03:03:00,
2013-06-02 20:08:00,72.3,54.2,29.67,SE,142,2.0,4.0,53,0.00,,,0.00,16,Wunderground v.1.15,2013-06-03 03:08:00,
2013-06-02 20:13:00,71.9,54.3,29.67,SE,142,1.0,1.0,54,0.00,,,0.00,14,Wunderground v.1.15,2013-06-03 03:13:00,
2013-06-02 20:19:00,71.2,54.2,29.67,SE,142,1.0,4.0,55,0.00,,,0.00,11,Wunderground v.1.15,2013-06-03 03:19:00,
2013-06-02 20:25:00,70.4,54.4,29.67,SE,142,1.0,3.0,57,0.00,,,0.00,7,Wunderground v.1.15,2013-06-03 03:25:00,
2013-06-02 20:30:00,69.9,54.4,29.67,SE,141,1.0,1.0,58,0.00,,,0.00,5,Wunderground v.1.15,2013-06-03 03:30:00,
2013-06-02 20:35:00,69.4,54.4,29.67,SE,124,1.0,3.0,59,0.00,,,0.00,0,Wunderground v.1.15,2013-06-03 03:35:00,
2013-06-02 20:41:00,68.7,53.8,29.67,SE,136,2.0,2.0,59,0.00,,,0.00,0,Wunderground v.1.15,2013-06-03 03:41:00,
2013-06-02 20:46:00,68.0,54.0,29.67,SE,134,2.0,2.0,61,0.00,,,0.00,0,Wunderground v.1.15,2013-06-03 03:46:00,
2013-06-02 20:52:00,67.3,53.8,29.68,SE,140,2.0,7.0,62,0.00,,,0.00,0,Wunderground v.1.15,2013-06-03 03:52:00,
2013-06-02 20:57:00,66.6,53.6,29.68,SE,140,2.0,7.0,63,0.00,,,0.00,0,Wunderground v.1.15,2013-06-03 03:57:00,
2013-06-02 21:01:00,66.1,53.6,29.68,SE,142,2.0,2.0,64,0.00,,,0.00,0,Wunderground v.1.15,2013-06-03 04:01:00,
2013-06-02 21:02:00,66.0,53.5,29.68,SE,142,2.0,2.0,64,0.00,,,0.00,0,Wunderground v.1.15,2013-06-03 04:02:00,
2013-06-02 21:04:00,65.6,53.5,29.68,SE,142,2.0,2.0,65,0.00,,,0.00,0,Wunderground v.1.15,2013-06-03 04:04:00,
2013-06-02 21:09:00,65.0,52.9,29.69,SE,143,2.0,3.0,65,0.00,,,0.00,0,Wunderground v.1.15,2013-06-03 04:09:00,
2013-06-02 21:12:00,64.7,53.1,29.69,SE,143,2.0,3.0,66,0.00,,,0.00,0,Wunderground v.1.15,2013-06-03 04:12:00,
2013-06-02 21:17:00,64.2,53.0,29.69,SE,143,1.0,3.0,67,0.00,,,0.00,0,Wunderground v.1.15,2013-06-03 04:17:00,
2013-06-02 21:22:00,63.8,52.6,29.69,SE,146,1.0,2.0,67,0.00,,,0.00,0,Wunderground v.1.15,2013-06-03 04:22:00,
2013-06-02 21:27:00,63.3,53.0,29.70,SE,146,1.0,2.0,69,0.00,,,0.00,0,Wunderground v.1.15,2013-06-03 04:27:00,
2013-06-02 21:33:00,62.9,53.0,29.70,SE,146,1.0,2.0,70,0.00,,,0.00,0,Wunderground v.1.15,2013-06-03 04:33:00,
2013-06-02 21:38:00,62.5,52.6,29.70,SE,140,1.0,3.0,70,0.00,,,0.00,0,Wunderground v.1.15,2013-06-03 04:38:00,
2013-06-02 21:43:00,62.1,52.2,29.70,SE,140,1.0,1.0,70,0.00,,,0.00,0,Wunderground v.1.15,2013-06-03 04:43:00,
2013-06-02 21:48:00,61.7,52.2,29.70,SE,142,1.0,2.0,71,0.00,,,0.00,0,Wunderground v.1.15,2013-06-03 04:48:00,
2013-06-02 21:53:00,61.4,52.3,29.71,SE,142,1.0,4.0,72,0.00,,,0.00,0,Wunderground v.1.15,2013-06-03 04:53:00,
2013-06-02 21:59:00,61.0,51.9,29.71,SE,142,1.0,4.0,72,0.00,,,0.00,0,Wunderground v.1.15,2013-06-03 04:59:00,
2013-06-02 22:05:00,60.6,51.9,29.71,SE,141,1.0,1.0,73,0.00,,,0.00,0,Wunderground v.1.15,2013-06-03 05:05:00,
2013-06-02 22:11:00,60.1,51.4,29.72,SE,142,1.0,3.0,73,0.00,,,0.00,0,Wunderground v.1.15,2013-06-03 05:11:00,
2013-06-02 22:16:00,59.8,51.5,29.72,SE,143,1.0,3.0,74,0.00,,,0.00,0,Wunderground v.1.15,2013-06-03 05:16:00,
2013-06-02 22:21:00,59.4,51.5,29.71,SE,143,1.0,1.0,75,0.00,,,0.00,0,Wunderground v.1.15,2013-06-03 05:21:00,
2013-06-02 22:27:00,59.2,51.3,29.72,SE,143,0.0,1.0,75,0.00,,,0.00,0,Wunderground v.1.15,2013-06-03 05:27:00,
2013-06-02 22:33:00,59.0,51.4,29.72,SE,143,0.0,1.0,76,0.00,,,0.00,0,Wunderground v.1.15,2013-06-03 05:33:00,
2013-06-02 22:39:00,58.8,51.2,29.72,SE,143,0.0,1.0,76,0.00,,,0.00,0,Wunderground v.1.15,2013-06-03 05:39:00,
2013-06-02 22:45:00,58.6,51.1,29.72,SE,143,0.0,0.0,76,0.00,,,0.00,0,Wunderground v.1.15,2013-06-03 05:45:00,
2013-06-02 22:51:00,58.4,50.9,29.72,SE,143,0.0,0.0,76,0.00,,,0.00,0,Wunderground v.1.15,2013-06-03 05:51:00,
2013-06-02 22:56:00,58.2,51.0,29.72,SE,143,0.0,1.0,77,0.00,,,0.00,0,Wunderground v.1.15,2013-06-03 05:56:00,
2013-06-02 23:01:00,58.1,50.9,29.72,SE,143,0.0,0.0,77,0.00,,,0.00,0,Wunderground v.1.15,2013-06-03 06:01:00,
2013-06-02 23:06:00,57.9,51.1,29.72,SE,143,0.0,0.0,78,0.00,,,0.00,0,Wunderground v.1.15,2013-06-03 06:06:00,
2013-06-02 23:12:00,57.7,50.9,29.72,SE,143,0.0,0.0,78,0.00,,,0.00,0,Wunderground v.1.15,2013-06-03 06:12:00,
2013-06-02 23:18:00,57.5,51.0,29.72,SE,143,0.0,0.0,79,0.00,,,0.00,0,Wunderground v.1.15,2013-06-03 06:18:00,
2013-06-02 23:23:00,57.4,50.9,29.72,SE,143,0.0,2.0,79,0.00,,,0.00,0,Wunderground v.1.15,2013-06-03 06:23:00,
2013-06-02 23:28:00,57.3,50.8,29.71,SE,143,0.0,2.0,79,0.00,,,0.00,0,Wunderground v.1.15,2013-06-03 06:28:00,
2013-06-02 23:34:00,57.1,50.6,29.72,SE,143,0.0,0.0,79,0.00,,,0.00,0,Wunderground v.1.15,2013-06-03 06:34:00,
2013-06-02 23:40:00,56.9,50.8,29.72,SE,143,0.0,0.0,80,0.00,,,0.00,0,Wunderground v.1.15,2013-06-03 06:40:00,
2013-06-02 23:45:00,56.7,50.6,29.72,SE,143,0.0,0.0,80,0.00,,,0.00,0,Wunderground v.1.15,2013-06-03 06:45:00,
2013-06-02 23:50:00,56.6,50.5,29.72,SE,143,0.0,0.0,80,0.00,,,0.00,0,Wunderground v.1.15,2013-06-03 06:50:00,
2013-06-02 23:56:00,56.5,50.4,29.72,SE,143,0.0,0.0,80,0.00,,,0.00,0,Wunderground v.1.15,2013-06-03 06:56:00,